LUCH-5B

Last updated on Wed Sep 17 2025 00:02:48 GMT+0000 (Coordinated Universal Time)

1 38977U 12061A 25259.22358631 -.00000152 00000+0 00000+0 0 9994 2 38977 9.8882 52.5224 0006831 155.9751 211.1111 1.00271198 46863
UTC large
Height (km)
Speed (km/s)
/
Latitude / Longitude
Inclination (degrees)
Orbital Period (minutes)
Azimuth
Elevation
Range (km)
Doppler Factor

Next 0 passes for location: London (51.5072 / 0.1276)

Sorry there are no passes over London.